Preview of NWS' New Version of Forecast
This preview is not operational and should not be used for support decisions.

Regional Weather Roundup (RWR)

Issued by National Weather Service (NWS)

                            
000
ASUS43 KDMX 240806
RWRIA 

WEATHER ROUNDUP FOR IOWA
NATIONAL WEATHER SERVICE DES MOINES IA
300 AM CDT SUN MAR 24 2019

NOTE: "FAIR" INDICATES FEW OR NO CLOUDS BELOW 12,000 FEET WITH NO
SIGNIFICANT WEATHER AND/OR OBSTRUCTIONS TO VISIBILITY.

* - THESE STATIONS ARE NOT NWS STATIONS...THUS NOT UNDER NWS
QUALITY CONTROL.  THEY ALSO DO NOT REPORT WEATHER SUCH 
AS PRECIPITATION OR FOG.  

IAZ001>003-012>014-020>022-031>034-043>046-240900-
   NORTHWEST IOWA
  
CITY           SKY/WX    TMP DP  RH WIND       PRES   REMARKS
CARROLL *      CLOUDY    43  41  93 E5        30.00S                  
CHEROKEE *     CLOUDY    42  40  93 E8        30.01S                  
DENISON *      CLOUDY    45  41  87 E7        29.99F                  
LE MARS *      CLOUDY    43  41  93 NE7       30.00S                  
SHELDON *      CLOUDY    41  41 100 E7        30.01S                  
SIOUX CITY     CLOUDY    43  39  86 E10       29.98S                  
SPENCER        CLOUDY    42  37  82 E9        30.03F                  
STORM LAKE *   CLOUDY    41  41 100 E12       29.98F                  
$$
 
IAZ055>058-069>071-079>083-090>094-240900-
   SOUTHWEST IOWA
  
CITY           SKY/WX    TMP DP  RH WIND       PRES   REMARKS
ATLANTIC *     CLOUDY    48  48 100 SE8       29.96F FOG              
AUDUBON *      DRIZZLE   43  39  87 CALM      29.99F                  
CLARINDA *     CLOUDY    50  46  87 SE8       29.98F                  
COUNCIL BLFS * CLOUDY    46  46 100 SE8       29.94F FOG              
CRESTON *      CLOUDY    46  46 100 SE9       29.98F                  
HARLAN  *      CLOUDY    45  45 100 CALM      29.97S FOG              
LAMONI         CLOUDY    48  43  82 SE7       29.99F                  
RED OAK *      CLOUDY    50  50 100 SE8       29.96S                  
SHENANDOAH *   CLOUDY    50  50 100 SE10      29.94F                  
$$
 
IAZ047>049-059>061-072>074-084-240900-
   CENTRAL IOWA
  
CITY           SKY/WX    TMP DP  RH WIND       PRES   REMARKS
AMES           CLOUDY    44  40  85 E6        30.03F                  
ANKENY *       CLOUDY    45  41  87 SE7       30.04F                  
BOONE *        CLOUDY    43  43 100 SE8       30.01F                  
CHARITON *     CLOUDY    45  45 100 SE10      30.01F                  
DES MOINES     CLOUDY    46  39  76 E7        30.02F                  
GRINNELL*      LGT RAIN  42  40  91 SE7       30.06F                  
KNOXVILLE *    CLOUDY    45  45 100 E6        30.02F                  
MARSHALLTOWN   CLOUDY    42  41  96 SE9       30.05S                  
NEWTON *       CLOUDY    43  43 100 SE9       30.04F                  
PELLA *        DRIZZLE   44  40  88 SE7       30.06F                  
PERRY *        CLOUDY    44  42  91 E8        30.01F                  
$$
 
IAZ004>006-015-016-023>025-035-036-240900-
   NORTH CENTRAL IOWA
  
CITY           SKY/WX    TMP DP  RH WIND       PRES   REMARKS
ALGONA *       CLOUDY    41  41 100 E6        30.05S                  
CLARION *      CLOUDY    41  39  93 E6        30.06S                  
ESTHERVILLE    CLOUDY    39  37  92 NE6       30.05S WCI  35          
FORT DODGE *   LGT RAIN  41  39  93 E9        30.04S                  
MASON CITY     LGT RAIN  40  36  86 SE6       30.09S                  
FOREST CITY *  RAIN      43  36  75 SE8       30.07S                  
IOWA FALLS *   RAIN      41  39  93 E5        30.07S                  
$$

IAZ007>011-017>019-026>030-037>042-050>054-066-240900-
   NORTHEAST IOWA
  
CITY           SKY/WX    TMP DP  RH WIND       PRES   REMARKS
CEDAR RAPIDS   CLOUDY    41  39  93 E7        30.08F                  
CLINTON *      LGT RAIN  42  37  82 SE6       30.14F                  
DECORAH *      CLOUDY    41  36  81 CALM      30.10S                  
DUBUQUE        LGT RAIN  41  35  79 S12       30.13R                  
OELWEIN *      CLOUDY    39  39 100 SE9       30.10F WCI  33          
WATERLOO       LGT RAIN  42  40  92 SE5       30.09S                  
$$
 
IAZ064-065-067-068-078-240900-
   EAST CENTRAL IOWA
  
CITY           SKY/WX    TMP DP  RH WIND       PRES   REMARKS
DAVENPORT      LGT RAIN  44  38  79 SE10      30.14F                  
IOWA CITY      CLOUDY    46  36  68 E5        30.11F                  
MT. PLEASANT * LGT RAIN  46  41  81 S9        30.09F                  
MUSCATINE *    CLOUDY    46  36  66 SE3       30.11F                  
QUAD CITIES    LGT RAIN  44  39  82 E6        30.12F                  
$$
 
IAZ062-063-075>077-085>089-095>099-240900-
   SOUTHEAST IOWA
  
CITY           SKY/WX    TMP DP  RH WIND       PRES   REMARKS
BURLINGTON     CLOUDY    48  39  71 S10       30.09F                  
FAIRFIELD *    CLOUDY    45  41  87 SE7       30.06F                  
FORT MADISON * CLOUDY    46  45  93 SE8       30.09F                  
KEOKUK *       LGT RAIN  45  43  93 E6        30.08F                  
OSKALOOSA *    LGT RAIN  42  40  93 SE9       30.06F                  
CENTERVILLE *  CLOUDY    45  45 100 SE8       30.04F                  
OTTUMWA        RAIN      44  40  85 SE8       30.05F FOG              
WASHINGTON *   MIX PCPN  43  41  93 SE6       30.09F                  
$$

ABBREVIATIONS USED IN REMARKS
   TC - TEMPERATURES IN CELSIUS
  WCI - WIND CHILL INDEX
   HX - HEAT INDEX
  VSB - VISIBILITY  
$$